Regional Weather Roundup
Issued by NWS

Home | Current Version | Previous Version | Text Only | Print | Product List | Glossary On
Versions: 1 2 3 4 5 6 7 8 9 10 11 12 13 14 15 16 17 18 19 20 21 22 23 24 25 26 27 28 29 30 31 32 33 34 35 36 37 38 39 40 41 42 43 44 45 46 47 48 49 50
000
ASUS43 KMPX 221810
RWRMN
WEATHER ROUNDUP FOR MINNESOTA
NATIONAL WEATHER SERVICE TWIN CITIES/CHANHASSEN MN
1200 PM CST THU FEB 22 2018


NOTE: "FAIR" INDICATES FEW OR NO CLOUDS BELOW 12,000 FEET WITH NO
SIGNIFICANT WEATHER AND/OR OBSTRUCTIONS TO VISIBILITY. N/A MEANS
CURRENT SKY AND/OR WEATHER CONDITIONS ARE NOT AVAILABLE.

MNZ060>063-068>070-221900-
   Twin Cities Metro

CITY           SKY/WX    TMP DP  RH WIND       PRES   REMARKS
TWIN CITIES    CLOUDY    24  13  62 SE12      30.52F WCI  13
6HR MIN TEMP:  11; 6HR MAX TEMP:  24;

ST PAUL        CLOUDY    25  11  55 SE9       30.54F WCI  15
CRYSTAL        CLOUDY    23   8  52 E7        30.51F WCI  15
BLAINE         CLOUDY    25  10  54 E6        30.52F WCI  18
LAKEVILLE      PTSUNNY   21  16  79 E9        30.49F WCI  11
EDEN PRAIRIE   CLOUDY    25  11  55 SE12      30.50F WCI  14
6HR MIN TEMP:  11; 6HR MAX TEMP:  25;

SOUTH ST PAUL  PTSUNNY   26  11  54 SE7       30.52F WCI  18
LAKE ELMO      FAIR      27  12  54 E6        30.54F WCI  20
$$
MNZ001>005-007-008-013>017-022>024-027-028-221900-
   Northwest Minnesota

CITY           SKY/WX    TMP DP  RH WIND       PRES   REMARKS
BEMIDJI        FAIR      22   1  39 S13G18    30.43F WCI  10
HALLOCK        FAIR       9   3  78 S18       30.41F WCI -10
ROSEAU         FAIR      18   9  68 SW13G18   30.42F WCI   4
WARROAD        FAIR      19   7  58 SW9       30.43F WCI   9
THIEF RVR FALL FAIR      17   8  67 SW15      30.43F WCI   2
CROOKSTON      FAIR      14   9  79 S15       30.45F WCI  -1
FOSSTON        FAIR      21   3  45 SW7       30.43F WCI  13
DETROIT LAKES  HVY SNOW  21   9  58 S14       30.44S VSB 1/4 WCI   8
MOORHEAD       PTSUNNY   18   9  68 S16       30.45F WCI   3
PARK RAPIDS    FAIR      18   3  52 S12       30.44F WCI   5
MAHNOMEN       FAIR      20   8  58 S16       30.43S WCI   6
$$
MNZ006-009>011-018-025>026-221900-
   North Central Minnesota

CITY           SKY/WX    TMP DP  RH WIND       PRES   REMARKS
BAUDETTE       FAIR      20   0  41 S12       30.43S WCI   8
FLAG ISLAND    FAIR       7   0  72 S9        30.42F WCI  -7
INTL FALLS     FAIR      22   0  38 VRB6      30.46F WCI  14
6HR MIN TEMP: -18; 6HR MAX TEMP:  22;

WASKISH        FAIR      25   1  36 S9        30.44F WCI  15
BIG FORK       FAIR      21   5  49 S12       30.45F WCI   9
LONGVILLE      FAIR      21   1  42 SE14      30.47F WCI   8
GRAND RAPIDS   FLURRIES  21   3  45 SE10      30.49F WCI  10
CRANE LAKE     FAIR      21  -2  35 S3        30.51F
ORR            FAIR      21   0  39 S10       30.45F WCI  10
COOK             N/A     19   0  42 SE8       30.48F WCI   9
WALKER         FAIR      21   1  42 S6        30.45F WCI  13
$$
MNZ012-019>021-037-221900-
   Northeast Minnesota

CITY           SKY/WX    TMP DP  RH WIND       PRES   REMARKS
DULUTH         FAIR      19   2  47 S8        30.52F WCI   9
6HR MIN TEMP:  -5; 6HR MAX TEMP:  19;

ELY            FAIR      23   1  39 S6        30.49F WCI  16
HIBBING        FAIR      20   0  41 VRB7      30.49F WCI  11
EVELETH        FAIR     N/A N/A N/A S7        30.51F
DULUTH HARBOR  FAIR      18  10  73 CALM      30.60F
TWO HARBORS    FAIR      36  16  44 CALM      30.54F
GRAND MARAIS     N/A     24  14  65 CALM      30.60F
G MARAIS ARPRT FAIR      19   7  58 S6        30.51F WCI  11
$$
MNZ029>031-032-039>041-046>048-054>057-064-221900-
   West Central Minnesota

CITY           SKY/WX    TMP DP  RH WIND       PRES   REMARKS
FERGUS FALLS   CLOUDY    19   9  63 S17       30.46F WCI   4
WHEATON        CLOUDY    18  10  73 SE14G20   30.46F WCI   4
MORRIS         CLOUDY    21  12  68 SE15      30.44F WCI   8
ALEXANDRIA     CLOUDY    19   7  59 SE13      30.46F WCI   6
ELBOW LAKE     CLOUDY    18   8  65 E15       30.46F WCI   3
WADENA         CLOUDY    18   3  53 SE13      30.46F WCI   4
GLENWOOD       FAIR      21  10  63 SE9       30.46F WCI  11
APPLETON       CLOUDY    21  12  68 SE10      30.45F WCI  10
BENSON         CLOUDY    21  12  68 S12       30.48F WCI   9
ORTONVILLE     CLOUDY    21  12  68 SE10      30.43F WCI  10
MADISON        CLOUDY    23  16  74 SE10      30.44F WCI  12
WILLMAR        CLOUDY    21  14  73 SE12      30.49F WCI   9
$$
MNZ033>034-036-042>043-049>051-058-059-221900-
   Central Minnesota

CITY           SKY/WX    TMP DP  RH WIND       PRES   REMARKS
ST CLOUD       CLOUDY    19   8  62 E5        30.50F WCI  12
6HR MIN TEMP:  -9; 6HR MAX TEMP:  19;

SAUK CENTRE    CLOUDY    19   9  67 E6        30.48F WCI  10
PAYNESVILLE    CLOUDY    22  13  66 SE8       30.48F WCI  13
AITKIN         FAIR      18   3  53 SE9       30.50F WCI   6
PINE RIVER     PTSUNNY   18   3  53 SE7       30.50F WCI   8
BRAINERD       PTSUNNY   19   2  47 SE5       30.50F WCI  12
STAPLES        CLOUDY    19   1  45 S7        30.47F WCI  10
LONG PRAIRIE   FAIR      18   5  57 E8        30.48F WCI   7
LITTLE FALLS   CLOUDY    19   1  45 SE5       30.50F WCI  13
LITCHFIELD     CLOUDY    21  14  73 E7        30.49F WCI  13
BUFFALO        CLOUDY    20   9  62 E3        30.52F
MAPLE LAKE     CLOUDY    21  12  67 E6        30.52F WCI  13
HUTCHINSON     CLOUDY    24  15  68 E10       30.50F WCI  13
$$
MNZ037-044-045-052-053-221900-
   East Central Minnesota

CITY           SKY/WX    TMP DP  RH WIND       PRES   REMARKS
PRINCETON      CLOUDY    21   9  58 CALM      30.51F
CAMBRIDGE        N/A     21   9  58 E3        30.53F
RUSH CITY      CLOUDY    19   7  60 N5        30.54F WCI  12
MOOSE LAKE     CLOUDY    21   3  45 CALM      30.53F
HINCKLEY       FAIR      19   7  58 CALM      30.54F
CLOQUET        FAIR      19   1  45 SE3       30.52F
MCGREGOR       FAIR      23   5  46 SE5       30.52F WCI  17
$$
MNZ071>073-080-081-089-090-097-098-221900-
   Southwest Minnesota

CITY           SKY/WX    TMP DP  RH WIND       PRES   REMARKS
MONTEVIDEO     CLOUDY    23  14  68 SE8       30.46F WCI  14
GRANITE FALLS  CLOUDY    23  15  70 E6        30.48F WCI  16
CANBY          CLOUDY    22  17  79 E10       30.45F WCI  11
MARSHALL       CLOUDY    24  16  71 SE8       30.45F WCI  15
REDWOOD FALLS  CLOUDY    23  16  74 E6        30.46F WCI  16
OLIVIA         CLOUDY    23  18  80 E6        30.47F WCI  16
PIPESTONE      CLOUDY    23  18  80 SE8       30.38S WCI  14
WORTHINGTON    CLOUDY    21  17  84 NE10      30.40F WCI  10
JACKSON        CLOUDY    21  19  93 NE9       30.41F WCI  11
TRACY          CLOUDY    23  19  87 E7        30.43F WCI  14
SLAYTON        CLOUDY    22  19  87 E9        30.41F WCI  11
$$
MNZ065>067-074>077-082>085-091>093-221900-
   South Central Minnesota

CITY           SKY/WX    TMP DP  RH WIND       PRES   REMARKS
MANKATO        CLOUDY    26  19  74 E9        30.48F WCI  17
NEW ULM        PTSUNNY   21  16  79 E6        30.47F WCI  14
ST JAMES       CLOUDY    21  18  86 NE7       30.47F WCI  13
GLENCOE        CLOUDY    23  15  71 E8        30.49F WCI  14
FARIBAULT      PTSUNNY   25  18  74 E8        30.48F WCI  16
OWATONNA       PTSUNNY   27  21  80 NE8       30.45F WCI  18
WASECA         CLOUDY    27  21  80 E7        30.46F WCI  19
ALBERT LEA     PTSUNNY   27  19  74 E9        30.44F WCI  17
$$
MNZ078>079-086>088-094>096-221900-
   Southeast Minnesota

CITY           SKY/WX    TMP DP  RH WIND       PRES   REMARKS
ROCHESTER      CLOUDY    25  20  81 E10       30.48F WCI  15
6HR MIN TEMP:  17; 6HR MAX TEMP:  25; 6HR PCP:  0.01;

RED WING       PTSUNNY   25  10  54 SE7       30.51F WCI  17
STANTON        CLOUDY    26  16  68 E8        30.49F WCI  17
DODGE CENTER   FAIR      25  18  74 E10       30.46F WCI  15
WINONA         CLOUDY    30  19  64 SE8       30.54F WCI  23
AUSTIN         FAIR      27  21  80 E8        30.46F WCI  18
PRESTON        CLOUDY    25  20  81 E7        30.48F WCI  17
$$
ABBREVIATIONS USED IN REMARKS
   TC - TEMPERATURES IN CELSIUS
  WCI - WIND CHILL INDEX
   HX - HEAT INDEX
  VSB - VISIBILITY
$$




USA.gov is the U.S. government's official web portal to all federal, state and local government web resources and services.